Tracking 17149 objects as of 22-May-2015
HD Live streaming from Space Station

PROGRESS-M 46


PROGRESS-M 46 is no longer on orbit
PROGRESS-M 46 is classified as:


NORAD ID: 27454
Int'l Code: 2002-033A
Perigee: N/A
Apogee: N/A
Inclination: N/A
Period: N/A
Semi major axis: N/A
RCS: N/A
Launch date: June 26, 2002
Source: Commonwealth of Independent States (former USSR) (CIS)
Decay date: 2002-10-14
Your satellite tracking list
Your tracking list is empty





NASA's NSSDC Master Catalog

Two Line Element Set (TLE):
1 27454U 02033A   02287.28750000  .00050602  00000-0  55134-3 0  9995
2 27454 051.6348 174.4089 0025284 006.2439 148.0901 15.62492889 17183

Source of the keplerian elements: AFSPC

N2YO: 389